Holland, MI

7:32 AM EST on February 08, 2016 (GMT -0500)
Tulip City

Weather History for KBIV - December, 2012

Change the Weather History Date:

Friday, December 14, 2012

  Actual Average Record
Temperature  
Mean Temperature 41 °F 32 °F  
Max Temperature 51 °F 37 °F 60 °F (2015)
Min Temperature 30 °F 27 °F -1 °F (1973)
Degree Days  
Heating Degree Days 24 33  
Month to date heating degree days 332 440  
Since 1 July heating degree days 1573 1663  
Cooling Degree Days 0 0  
Month to date cooling degree days 0 0  
Year to date cooling degree days 1067 693  
Moisture  
Dew Point 31 °F    
Average Humidity 71    
Maximum Humidity 89    
Minimum Humidity 52    
Precipitation  
Precipitation 0.00 in 0.07 in 0.77 in (2011)
Month to date precipitation 0.93 1.28  
Year to date precipitation 31.77 35.44  
Sea Level Pressure  
Sea Level Pressure 30.18 in    
Wind  
Wind Speed 5 mph (SE)    
Max Wind Speed 17 mph    
Max Gust Speed 22 mph    
Visibility 10 miles    
Events      
T = Trace of Precipitation, MM = Missing Value Source: NWS Daily Summary

Daily Weather History Graph

Daily Weather History Graph

Search for Another Location

Airport or City:

Trip Planner

Search our weather history database for the weather conditions in past years. The results will help you decide how hot, cold, wet, or windy it might be!

Date:

Astronomy

Dec. 14, 2012 Rise Set
Actual Time 8:07 AM EST 5:11 PM EST
Civil Twilight 7:35 AM EST 5:43 PM EST
Nautical Twilight 6:59 AM EST 6:19 PM EST
Astronomical Twilight 6:25 AM EST 6:53 PM EST
Moon 9:10 AM EST (12/14) 7:04 PM EST (12/14)
Length of Visible Light 10h 08m
Length of Day
9h 03m
Waxing Crescent, 3% of the Moon is Illuminated
Dec 14
Waxing Crescent
Dec 20
First Quarter
Dec 28
Full
Jan 4
Last Quarter
Jan 11
New

Hourly Weather History & Observations

Time (EST) Temp. Windchill Dew Point Humidity Pressure Visibility Wind Dir Wind Speed Gust Speed Precip Events Conditions
1:53 AM 42.1 °F 36.1 °F 34.0 °F 73% 30.16 in 10.0 mi WSW 10.4 mph - N/A   Clear
2:53 AM 41.0 °F 36.4 °F 34.0 °F 76% 30.17 in 10.0 mi WSW 6.9 mph - N/A   Clear
3:53 AM 39.0 °F - 33.1 °F 79% 30.18 in 10.0 mi Calm Calm - N/A   Clear
4:53 AM 34.0 °F 29.8 °F 30.0 °F 85% 30.18 in 9.0 mi SE 4.6 mph - N/A   Clear
5:53 AM 32.0 °F 28.7 °F 28.0 °F 85% 30.19 in 10.0 mi SSE 3.5 mph - N/A   Clear
7:53 AM 30.9 °F 26.2 °F 25.0 °F 79% 30.20 in 10.0 mi SSE 4.6 mph - N/A   Clear
8:53 AM 34.0 °F - 28.0 °F 79% 30.20 in 10.0 mi Calm Calm - N/A   Clear
9:53 AM 37.9 °F 35.5 °F 30.9 °F 76% 30.22 in 10.0 mi SE 3.5 mph - N/A   Clear
10:53 AM 39.9 °F 37.8 °F 32.0 °F 73% 30.24 in 10.0 mi South 3.5 mph - N/A   Clear
11:53 AM 45.0 °F - 34.0 °F 65% 30.23 in 10.0 mi Calm Calm - N/A   Clear
12:53 PM 48.0 °F - 35.1 °F 61% 30.20 in 10.0 mi Calm Calm - N/A   Clear
2:53 PM 50.0 °F - 34.0 °F 54% 30.16 in 10.0 mi Calm Calm - N/A   Clear
3:53 PM 50.0 °F - 34.0 °F 54% 30.15 in 10.0 mi East 6.9 mph - N/A   Clear
4:53 PM 45.0 °F 43.5 °F 32.0 °F 60% 30.16 in 10.0 mi ESE 3.5 mph - N/A   Clear
5:53 PM 41.0 °F 38.0 °F 30.9 °F 67% 30.17 in 10.0 mi East 4.6 mph - N/A   Clear
6:53 PM 39.9 °F 35.8 °F 30.9 °F 70% 30.17 in 10.0 mi East 5.8 mph - N/A   Clear
7:53 PM 37.9 °F 34.4 °F 30.0 °F 73% 30.18 in 10.0 mi SE 4.6 mph - N/A   Clear
8:53 PM 37.9 °F 33.5 °F 28.9 °F 70% 30.18 in 10.0 mi ESE 5.8 mph - N/A   Clear
9:53 PM 37.0 °F 32.4 °F 28.9 °F 73% 30.16 in 10.0 mi East 5.8 mph - N/A   Clear
10:53 PM 36.0 °F 31.1 °F 28.9 °F 76% 30.14 in 10.0 mi East 5.8 mph - N/A   Clear
11:53 PM 35.1 °F 32.2 °F 28.0 °F 76% 30.13 in 9.0 mi East 3.5 mph - N/A   Clear